Overview Statistics Trail Chart Weather Telemetry Raw packets
 

This is the latest recevied weather packets stored in our database for station/object M0HPP-13. If no packets are shown the sender has not sent any weather packets the latest 10 day(s).

<< 14 15 16 17 18 19 20 >>
Time Temp. Humidity Pressure Rain* Wind** Luminosity Snow
1788407886 13.33° C 99% 1002.3 hPa 0 mm - 0 W/m² -
1788407286 12.78° C 99% 1002.2 hPa 0 mm - 0 W/m² -
1788406686 12.78° C 98% 1002.2 hPa 0 mm - 0 W/m² -
1788406086 11.67° C 98% 1002.2 hPa 0 mm - 0 W/m² -
1788405486 10.56° C 99% 1002.1 hPa 0 mm - 0 W/m² -
1788404886 10.56° C 99% 1001.9 hPa 0 mm - 0 W/m² -
1788404286 11.11° C 99% 1001.8 hPa 0 mm - 0 W/m² -
1788403686 11.11° C 99% 1001.9 hPa 0 mm - 0 W/m² -
1788403086 11.67° C 99% 1001.9 hPa 0 mm - 0 W/m² -
1788402486 11.67° C 99% 1002 hPa 0 mm - 0 W/m² -
1788401886 11.67° C 99% 1001.9 hPa 0 mm - 0 W/m² -
1788401286 11.67° C 99% 1002 hPa 0 mm - 0 W/m² -
1788400686 11.67° C 99% 1002 hPa 0 mm - 0 W/m² -
1788400086 12.22° C 99% 1002 hPa 0 mm - 0 W/m² -
1788399486 12.22° C 99% 1002.1 hPa 0 mm - 0 W/m² -
1788398886 12.22° C 99% 1002 hPa 0.51 mm - 0 W/m² -
1788398286 12.22° C 99% 1002.2 hPa 0.76 mm - 0 W/m² -
1788397686 12.22° C 99% 1002.3 hPa 1.02 mm - 0 W/m² -
1788397086 12.22° C 99% 1002.4 hPa 1.02 mm - 0 W/m² -
1788396486 12.22° C 99% 1002.4 hPa 1.02 mm - 0 W/m² -
1788395286 12.22° C 99% 1002.5 hPa 1.27 mm - 0 W/m² -
1788394686 12.22° C 99% 1002.9 hPa 0.51 mm - 0 W/m² -
1788394086 12.22° C 99% 1003.3 hPa 0.51 mm - 0 W/m² -
1788393486 12.22° C 99% 1003.2 hPa 0.51 mm - 0 W/m² -
1788392886 12.22° C 99% 1003.3 hPa 0.25 mm - 0 W/m² -

* Rain latest hour (hover to see other rain measurements)
** Current wind speed in m/s (hover to see current wind gust speed)